Regional Weather Roundup
Issued by NWS State College, PA

Home | Current Version | Previous Version | Graphics & Text | Print | Product List | Glossary On
Versions: 1 2 3 4 5 6 7 8 9 10 11 12 13 14 15 16 17 18 19 20 21 22 23 24 25 26 27 28 29 30 31 32 33 34 35 36 37 38 39 40 41 42 43 44 45 46 47 48 49 50
000
ASUS41 KCTP 122103
RWRCTP

REGIONAL WEATHER ROUNDUP
NATIONAL WEATHER SERVICE STATE COLLEGE PA
500 PM EDT SAT JUL 12 2014

Note: "fair" indicates few or no clouds below 12,000 feet with no
significant weather and/or obstructions to visibility.

* = STATION THAT DOES NOT REPORT PRECIPITATION /E.G. RAIN...SNOW...ETC/
    THUNDER OR FOG.

PAZ002>004-007>009-013>016-020>023-029>032-122200-
WESTERN PENNSYLVANIA

CITY           SKY/WX    TMP DP  RH WIND       PRES   REMARKS
ERIE           MOSUNNY   82  58  43 NW6       30.10F
MEADVILLE      MOSUNNY   81  60  48 VRB6      30.13F
FRANKLIN*      MOSUNNY   81  59  47 SW8       30.16F
NEW CASTLE       N/A     85  62  45 SW3       30.13F
BEAVER COUNTY  MOSUNNY   86  59  39 SW6       30.14F
BUTLER*        MOSUNNY   84  63  48 SW9       30.16F
PITTSBURGH INT CLOUDY    84  60  44 W6        30.14F
PITTSBURGH     PTSUNNY   84  57  39 W8        30.14F
INDIANA*       PTSUNNY   82  59  44 SW7G16    30.20F
LATROBE        PTSUNNY   84  61  45 SW7       30.16F
WASHINGTON CO* PTSUNNY   84  63  48 SW8       30.16F
$$

PAZ004>006-010>012-017>019-024>028-033>037-041-042-045-046-049>053-122200-
CENTRAL PENNSYLVANIA

CITY           SKY/WX    TMP DP  RH WIND       PRES   REMARKS
BRADFORD       MOSUNNY   79  56  45 SW10      30.18F
DUBOIS         MOSUNNY   80  57  45 SW10      30.17F
CLEARFIELD     MOSUNNY   81  56  42 S6        30.17F
JOHNSTOWN      MOSUNNY   81  55  40 W12       30.21F
ALTOONA        MOSUNNY   83  61  47 W9        30.17F
STATE COLLEGE  MOSUNNY   82  63  51 SW7       30.14F
WILLIAMSPORT   MOSUNNY   85  65  51 S6        30.09F
SELINSGROVE    PTSUNNY   83  69  62 S12       30.12F
FT INDIANTOWN  NOT AVBL
CAPITAL CITY   PTSUNNY   81  71  71 E7        30.12F
HARRISBURG     PTSUNNY   83  70  64 E13       30.12F
YORK           SUNNY     86  70  58 VRB3      30.12F
$$

PAZ038>040-043-044-047-048-054-055-060>062-067>071-122200-
EASTERN PENNSYLVANIA

CITY           SKY/WX    TMP DP  RH WIND       PRES   REMARKS
SCRANTON       SUNNY     83  64  52 S9G24     30.14F
MOUNT POCONO   CLOUDY    77  63  61 S12       30.21F
ALLENTOWN      PTSUNNY   87  64  46 SW14G21   30.14F
QUAKERTOWN*    PTCLDY    86  66  51 S9        30.17S
READING        RAIN      73  69  87 CALM      30.16S FOG
LANCASTER      PTSUNNY   76  68  76 E6        30.15F
COATESVILLE    PTCLDY    79  68  69 S5        30.18F
POTTSTOWN      CLOUDY    84  65  52 SW10      30.17S
BLUE BELL      MOSUNNY   88  64  45 SW9G16    30.15S
DOYLESTOWN     PTSUNNY   82  66  58 S5        30.15F
WILLOW GROVE   NOT AVBL
NORTH PHILA    PTSUNNY   86  62  44 S9        30.17S
PHILADELPHIA   MOSUNNY   88  57  34 S14       30.16S
$$


USA.gov is the U.S. government's official web portal to all federal, state and local government web resources and services.